Showing default

AO-91, 43017

Orbit data source: Space-Track

AO-91, 43017 is an American payload satellite in SSO that was launched on Sat, 18 Nov 2017 UTC via a DELTA 7920-10C launch vehicle from the Air Force Western Test Range (AFWTR). Payload-class satellites include a variety of spacecraft equipped with specific instruments for various scientific and technological missions. These include communications satellites like Starlink; space stations such as the ISS; scientific satellites like the Hubble; Earth observation satellites from companies like Planet Labs, Umbra, and HawkEye 360; GPS; miniature CubeSats for education and research; and military/defense satellites.

Loading next visibility...
Identifier
43017, 2017-073E
Orbit
SSO
Country
Flag of USUS
Related business
Manufacturer
Vanderbilt U
Mission
Operational Amateur Tech/Com
Bus & Motor
CUBESAT 1U, Unknown motor
Mass
1 kg wet, 1 kg dry
Launch date (UTC)
2017-11-18 (8 years ago)
Launch vehicle
DELTA 7920-10C
Launch site
Air Force Western Test Range (AFWTR)
Object type
Payload
Rocket body
Debris
Shape & HBR
Box, 0.1 m
Radar Cross Section
0.015 m², Small (<0.1 m²)

Expand to show TLE details & history
Last TLE update: 8 hours ago

TLE from 8 hours ago
0 AO-91
1 43017U 17073E   25243.61566232  .00010767  00000-0  54058-3 0  9996
2 43017  97.5120 112.3046 0167202 243.1371 115.2681 15.06013293421705
Epoch: 2025-08-31T14:46Z
TLE epoch observation values (Epoch: 2025-08-31T14:46:33.224Z)
Latitude
0.00002°
Longitude
-89.36689°
Altitude
602.478 km
Speed
7.53 km/s
True Right ascension
07h 29m 13s
True Declination
0° 00' 00"
Sunlit
Object was in daylight at epoch
Visualization orbit readout
Latitude
Unknown
Longitude
Unknown
Altitude
Unknown
Speed
Unknown
Apparent Right ascension
Unknown
Apparent Declination
Unknown
Sunlit
N/A
Visualization observer readout
Local Sidereal Time
14:12:39
Azimuth
Unknown
Elevation
Unknown
Doppler factor
Unknown
Orbital elements
Apogee altitude
661.147 km
Perigee altitude
429.622 km
Semi-major axis
6,923.522 km
Eccentricity
0.01672
Inclination
97.512°
RAAN
112.3046°
Arg. of periapsis
243.1371°
True anomaly
116.98519°
Mean anomaly
115.2681°
Eccentric anomaly
116.1282°
Mean motion
3.76749 °/min
Orbital period
95.55 mins
BSTAR
0.00054058
Loading maneuver chart data...
Computing Atmospheric mass density...
Loading historical data...
Loading historical data...
Loading historical data...
Loading historical data...
Loading historical data...
Loading historical data...
Loading historical data...
Other satellites on launch #73 in the year 2017 (2017-11-18 UTC)

Documentation

Showing up to 5 results
|